TimeMDT,TemperatureF,Dew PointF,Humidity,Sea Level PressureIn,VisibilityMPH,Wind Direction,Wind SpeedMPH,Gust SpeedMPH,PrecipitationIn,Events,Conditions,WindDirDegrees,DateUTC
12:52 AM,55.9,16.0,21,29.73,10.0,ESE,6.9,-,N/A,,Clear,120,2012-10-17 06:52:00
1:52 AM,54.0,16.0,22,29.74,10.0,ESE,10.4,-,N/A,,Clear,110,2012-10-17 07:52:00
2:52 AM,53.1,16.0,23,29.74,10.0,ESE,6.9,-,N/A,,Clear,120,2012-10-17 08:52:00
3:52 AM,54.0,17.1,23,29.71,10.0,SSE,8.1,-,N/A,,Clear,160,2012-10-17 09:52:00
4:52 AM,53.1,19.0,26,29.72,10.0,SSE,6.9,-,N/A,,Clear,150,2012-10-17 10:52:00
5:52 AM,51.1,21.9,32,29.75,10.0,SE,9.2,-,N/A,,Clear,130,2012-10-17 11:52:00
6:52 AM,53.1,24.1,32,29.78,10.0,East,5.8,-,N/A,,Clear,100,2012-10-17 12:52:00
7:52 AM,55.0,24.1,30,29.82,10.0,ESE,6.9,-,N/A,,Clear,110,2012-10-17 13:52:00
8:52 AM,64.0,33.1,31,29.83,10.0,NW,5.8,-,N/A,,Clear,320,2012-10-17 14:52:00
9:52 AM,66.0,33.1,29,29.83,10.0,WNW,11.5,-,N/A,,Clear,300,2012-10-17 15:52:00
10:52 AM,68.0,33.1,27,29.86,10.0,NW,19.6,26.5,N/A,,Partly Cloudy,310,2012-10-17 16:52:00
11:52 AM,71.1,30.0,22,29.86,10.0,WNW,21.9,36.8,N/A,,Partly Cloudy,290,2012-10-17 17:52:00
12:52 PM,73.9,23.0,15,29.83,10.0,NW,20.7,26.5,N/A,,Clear,310,2012-10-17 18:52:00
1:52 PM,75.0,15.1,10,29.80,10.0,NW,18.4,26.5,N/A,,Clear,320,2012-10-17 19:52:00
2:52 PM,75.9,6.1,7,29.77,10.0,NW,25.3,31.1,N/A,,Clear,320,2012-10-17 20:52:00
3:52 PM,75.9,-4.0,4,29.78,10.0,NW,20.7,32.2,N/A,,Partly Cloudy,320,2012-10-17 21:52:00
4:52 PM,75.0,-9.0,4,29.78,10.0,NW,18.4,26.5,N/A,,Partly Cloudy,320,2012-10-17 22:52:00
5:52 PM,73.0,-11.0,4,29.80,10.0,NW,12.7,-,N/A,,Partly Cloudy,320,2012-10-17 23:52:00
6:52 PM,69.1,-8.0,4,29.83,10.0,North,6.9,-,N/A,,Partly Cloudy,360,2012-10-18 00:52:00
7:52 PM,66.9,-7.1,5,29.86,10.0,NNW,11.5,-,N/A,,Clear,340,2012-10-18 01:52:00
8:52 PM,66.0,-7.1,5,29.86,10.0,NNW,16.1,-,N/A,,Clear,340,2012-10-18 02:52:00
9:52 PM,64.0,-6.0,6,29.89,10.0,North,12.7,-,N/A,,Clear,360,2012-10-18 03:52:00
10:52 PM,59.0,-2.9,8,29.91,10.0,North,6.9,-,N/A,,Clear,10,2012-10-18 04:52:00
11:52 PM,57.9,-4.0,8,29.91,10.0,NNE,6.9,-,N/A,,Clear,20,2012-10-18 05:52:00